Location: Fours
(44.3167°N, 6.7000°E)
Time: 03:02:05
(UTC+00:00)

CENTAUR R/B - Pass Details

Date: 30 November 2020
Orbit: 750 x 1438 km, 63.4° (Epoch: 11 January)

Event Time Altitude Azimuth Distance (km) Brightness Sun altitude
Rises 16:59:23 0° 156° (SSE) 3,348 5.3 -11.2°
Reaches altitude 10° 17:03:04 10° 131° (SE) 2,531 4.4 -11.8°
Maximum altitude 17:05:47 14° 102° (ESE) 2,379 4.0 -12.2°
Enters shadow 17:06:27 13° 95° (E) 2,418 4.0 -12.4°
